Карточка аэропорта UAAH

Внимание!
Информация на этой странице в стадии наполнения.
Если вы не увидели какой-то информации, или заметили неточность - пожалуйста сообщите нам!
Спасибо!
Команда RU-STAFF
Название аэропортаБалхаш
Название аэропорта (англ.)Balkhash
Превышение1446 ft. (440.7 m.)
Координаты46°53.424', 74°59.928'
Высота перехода10000ft
Эшелон переходаFL120, QNH<733:FL130
Коды ответчика3501-3517, 3401-3427
Зона ОрВДАлматы РПИ (UAAA)
Данные METARUAAH 191300Z 26005MPS CAVOK 25/15 Q1002 NOSIG RMK QFE715/0953
Проноз погоды (TAF)UAAH 191100Z 1912/1921 30010G15MPS 3100 -TSRA BKN020CB
NOTAMshow/hide NOTAM
AWOS   TABLE

Информация о ВПП


Диспетчерские позиции




Спутниковое изображение